Location: ??????
(41.3164°N, 22.6615°E)
Time: 21:51:37
(UTC+00:00)

X-37B - Visible Passes

Search period start: 21 January 2022 00:00
Search period end: 31 January 2022 00:00
Orbit: 334 x 337 km, 45.0° (Epoch: 11 January)

Date Brightness Start Highest point End Pass type
(mag) Time Alt. Az. Time Alt. Az. Time Alt. Az.
25 Jan 2.4 16:58:33 10° S 17:00:11 16° SSE 17:00:11 16° SSE visible
26 Jan 1.5 17:17:58 10° SW 17:20:01 34° S 17:20:01 34° S visible
27 Jan 2.5 16:03:59 10° S 16:05:50 16° SE 16:07:42 10° ESE visible
27 Jan 2.3 17:38:12 10° WSW 17:39:47 30° WSW 17:39:47 30° WSW visible
28 Jan 1.1 16:23:23 10° SW 16:26:04 39° SSE 16:28:15 14° E visible
28 Jan 3.5 17:58:47 10° W 17:59:29 16° W 17:59:29 16° W visible
29 Jan 0.2 16:43:37 10° WSW 16:46:27 85° NNW 16:47:54 26° ENE visible
30 Jan 0.9 17:04:13 10° W 17:06:58 47° NNW 17:07:32 39° NNE visible
